FW2825 Weather Reports


Display with metric or nautical units.
time (UTC)temp
F
wind
direction
speed
MPH
gust
MPH
rain 1hr
in
rain 24hr
in
rain mn
in
humidity
%
barometer
mb
20260504150116 64 360 0.0 10.0 0.00 0.00 0.00 41 1010.1
20260504130112 59 360 0.0 1.0 0.00 0.00 0.00 49 1010.8
20260504120133 47 360 0.0 0.0 0.00 0.00 0.00 80 1011.4
20260504110104 35 360 0.0 0.0 0.00 0.00 0.00 93 1011.8
20260504100105 34 360 0.0 0.0 0.00 0.00 0.00 92 1011.5
20260504090109 35 360 0.0 0.0 0.00 0.00 0.00 89 1011.2
20260504081610 37 360 0.0 0.0 0.00 0.00 0.00 86 1011.3
20260504080120 38 360 0.0 0.0 0.00 0.00 0.00 85 1011.3
20260504070121 38 360 0.0 0.0 0.00 0.00 0.00 85 1011.3
20260504050008 36 360 0.0 0.0 0.00 0.00 0.00 84 1011.6
20260504044609 36 360 0.0 0.0 0.00 0.00 0.00 83 1011.7
20260504043116 36 360 0.0 0.0 0.00 0.00 0.00 82 1011.7
20260504041619 37 360 0.0 0.0 0.00 0.00 0.00 80 1011.7
20260504040007 37 360 0.0 0.0 0.00 0.00 0.00 80 1011.5
20260504034609 37 360 0.0 0.0 0.00 0.00 0.00 81 1011.5
20260504033130 37 360 0.0 0.0 0.00 0.00 0.00 78 1011.3
20260504031603 38 360 0.0 0.0 0.00 0.00 0.00 77 1011.2
20260504030118 38 360 0.0 0.0 0.00 0.00 0.00 76 1011.2
20260504024612 39 360 0.0 0.0 0.00 0.00 0.00 73 1011.1
20260504023118 39 360 0.0 0.0 0.00 0.00 0.00 71 1011.2
20260504021605 40 360 0.0 0.0 0.00 0.00 0.00 70 1011.1
20260504020108 41 360 0.0 0.0 0.00 0.00 0.00 66 1011.0
20260504014617 41 360 0.0 0.0 0.00 0.00 0.00 64 1010.7
20260504013122 42 360 0.0 0.0 0.00 0.00 0.00 62 1010.6
20260504011608 42 360 0.0 0.0 0.00 0.00 0.00 58 1010.5
20260504010113 44 360 0.0 0.0 0.00 0.00 0.00 56 1010.3
20260504004621 45 360 0.0 0.0 0.00 0.00 0.00 56 1010.1
20260504003114 47 360 0.0 0.0 0.00 0.00 0.00 50 1009.8
20260504001612 48 360 0.0 0.0 0.00 0.00 0.00 45 1009.6
20260504000117 50 360 0.0 0.0 0.00 0.00 0.00 44 1009.3
20260503234607 50 360 0.0 0.0 0.00 0.00 0.00 38 1009.2
20260503233111 51 360 0.0 0.0 0.00 0.00 0.00 44 1009.2
20260503231618 52 360 0.0 2.0 0.00 0.00 0.00 37 1009.0
20260503230114 53 360 0.0 0.0 0.00 0.00 0.00 41 1009.0
20260503224615 53 360 0.0 0.0 0.00 0.00 0.00 38 1008.9
20260503223119 53 360 0.0 0.0 0.00 0.00 0.00 36 1008.9
20260503221507 54 360 0.0 1.0 0.00 0.00 0.00 38 1008.9
20260503220110 53 360 0.0 11.0 0.00 0.00 0.00 38 1008.9
20260503214612 53 360 0.0 11.0 0.00 0.00 0.00 39 1009.0
20260503213121 52 360 0.0 6.0 0.00 0.00 0.00 41 1008.9
20260503211605 53 360 1.0 11.0 0.00 0.00 0.00 38 1009.0
20260503210112 54 360 0.0 11.0 0.00 0.00 0.00 40 1008.9
20260503204504 53 360 0.0 16.0 0.00 0.00 0.00 42 1008.8
20260503203106 53 360 0.0 0.0 0.00 0.00 0.00 42 1008.8
20260503201611 52 360 0.0 22.0 0.00 0.00 0.00 42 1008.8
20260503200003 52 360 1.0 12.0 0.00 0.00 0.00 42 1008.7
20260503194627 52 360 3.0 17.0 0.00 0.00 0.00 43 1008.8
20260503193115 52 360 0.0 10.0 0.00 0.00 0.00 41 1008.9
20260503191620 52 360 3.0 12.0 0.00 0.00 0.00 42 1008.6
20260503190108 52 360 1.0 8.0 0.00 0.00 0.00 41 1008.8
20260503184611 51 360 0.0 8.0 0.00 0.00 0.00 44 1008.8
20260503183118 51 360 1.0 15.0 0.00 0.00 0.00 43 1008.8
20260503181609 51 360 5.0 15.0 0.00 0.00 0.00 43 1008.8
20260503180113 51 360 0.0 12.0 0.00 0.00 0.00 46 1008.9
20260503174623 50 360 0.0 10.0 0.00 0.00 0.00 47 1009.0
20260503173113 52 360 3.0 21.0 0.00 0.00 0.00 45 1009.0
20260503171610 53 360 7.0 18.0 0.00 0.00 0.00 49 1008.9
20260503170120 52 360 3.0 16.0 0.00 0.00 0.00 44 1008.7
20260503160109 51 360 0.0 8.0 0.00 0.00 0.00 45 1008.4